• In Germany
  • List of Countries
  • For 7 days
  • Water Temperature
  • Satellite Maps
  • Weather Map
  • Weather Widgets
  • user-avatar
    Login

    Hourly Weather Severnyy

    Today, 21 September, Friday

    Time Temperature Precipitation Wind Pressure Humidity
    00:00 -3°C° 0 mm 6 mps 652 mmHg 82%
    01:00 -2°C° 0 mm 5 mps 652 mmHg 83%
    02:00 -2°C° 0.1 mm 5 mps 653 mmHg 83%
    03:00 -2°C° 0.1 mm 5 mps 653 mmHg 84%
    04:00 -2°C° 0.1 mm 5 mps 653 mmHg 84%
    05:00 -2°C° 0.1 mm 4 mps 653 mmHg 83%
    06:00 -2°C° 0.1 mm 4 mps 654 mmHg 83%
    07:00 -2°C° 0.1 mm 4 mps 654 mmHg 82%
    08:00 -1°C° 0.2 mm 4 mps 655 mmHg 79%
    09:00 0°C° 0.2 mm 5 mps 655 mmHg 76%
    10:00 0°C° 0.2 mm 5 mps 656 mmHg 73%
    11:00 +1°C° 0.1 mm 5 mps 656 mmHg 72%
    12:00 +1°C° 0.1 mm 5 mps 656 mmHg 71%
    13:00 +3°C° 0 mm 6 mps 656 mmHg 59%
    14:00 +2°C° 0 mm 6 mps 656 mmHg 61%
    15:00 +2°C° 0 mm 5 mps 657 mmHg 62%
    16:00 +2°C° 0 mm 5 mps 657 mmHg 63%
    17:00 +1°C° 0.2 mm 4 mps 657 mmHg 69%
    18:00 +1°C° 0.2 mm 3 mps 657 mmHg 75%
    19:00 +1°C° 0.2 mm 2 mps 657 mmHg 81%
    20:00 +1°C° 0.2 mm 2 mps 657 mmHg 83%
    21:00 -1°C° 0.2 mm 2 mps 657 mmHg 85%
    22:00 -1°C° 0.2 mm 2 mps 657 mmHg 87%
    23:00 -1°C° 0 mm 2 mps 657 mmHg 89%

    Tomorrow, 22 September, Saturday

    Time Temperature Precipitation Wind Pressure Humidity
    00:00 0°C° 0 mm 1 mps 658 mmHg 90%
    01:00 0°C° 0 mm 1 mps 658 mmHg 92%
    02:00 0°C° 0 mm 1 mps 658 mmHg 92%
    03:00 0°C° 0 mm 1 mps 658 mmHg 92%
    04:00 0°C° 0 mm 1 mps 659 mmHg 92%
    05:00 0°C° 0 mm 1 mps 659 mmHg 90%
    06:00 +1°C° 0 mm 1 mps 659 mmHg 88%
    07:00 +1°C° 0 mm 1 mps 660 mmHg 85%
    08:00 +3°C° 0 mm 1 mps 660 mmHg 77%
    09:00 +5°C° 0 mm 1 mps 661 mmHg 69%
    10:00 +6°C° 0 mm 2 mps 662 mmHg 60%
    11:00 +7°C° 0 mm 2 mps 662 mmHg 57%
    12:00 +8°C° 0 mm 2 mps 662 mmHg 54%
    13:00 +9°C° 0 mm 2 mps 662 mmHg 51%
    14:00 +9°C° 0 mm 2 mps 662 mmHg 53%
    15:00 +9°C° 0 mm 2 mps 661 mmHg 54%
    16:00 +8°C° 0 mm 2 mps 661 mmHg 56%
    17:00 +6°C° 0 mm 2 mps 661 mmHg 65%
    18:00 +5°C° 0 mm 1 mps 660 mmHg 74%
    19:00 +2°C° 0 mm 1 mps 660 mmHg 83%
    20:00 +2°C° 0 mm 1 mps 660 mmHg 85%
    21:00 +1°C° 0 mm 1 mps 660 mmHg 86%
    22:00 0°C° 0 mm 0 mps 660 mmHg 87%
    23:00 -1°C° 0 mm 0 mps 660 mmHg 87%

    Day after tomorrow, 23 September, Sunday

    Time Temperature Precipitation Wind Pressure Humidity
    00:00 -1°C° 0 mm 0 mps 660 mmHg 87%
    01:00 -1°C° 0 mm 0 mps 659 mmHg 87%
    02:00 -1°C° 0 mm 0 mps 659 mmHg 88%
    03:00 -1°C° 0 mm 1 mps 659 mmHg 88%
    04:00 -1°C° 0 mm 1 mps 659 mmHg 89%
    05:00 0°C° 0 mm 1 mps 659 mmHg 85%
    06:00 +1°C° 0 mm 1 mps 660 mmHg 82%
    07:00 +2°C° 0 mm 1 mps 660 mmHg 78%
    08:00 +4°C° 0 mm 1 mps 660 mmHg 70%
    09:00 +7°C° 0 mm 1 mps 661 mmHg 62%
    10:00 +9°C° 0 mm 1 mps 661 mmHg 54%
    11:00 +9°C° 0 mm 2 mps 661 mmHg 51%
    12:00 +10°C° 0 mm 2 mps 661 mmHg 47%
    13:00 +12°C° 0 mm 2 mps 661 mmHg 44%
    14:00 +12°C° 0 mm 2 mps 660 mmHg 45%
    15:00 +12°C° 0 mm 2 mps 660 mmHg 46%
    16:00 +11°C° 0 mm 1 mps 660 mmHg 47%
    17:00 +9°C° 0 mm 1 mps 659 mmHg 56%
    18:00 +7°C° 0 mm 1 mps 659 mmHg 66%
    19:00 +4°C° 0 mm 1 mps 658 mmHg 75%
    20:00 +4°C° 0 mm 1 mps 658 mmHg 79%
    21:00 +3°C° 0 mm 1 mps 658 mmHg 83%
    22:00 +2°C° 0 mm 1 mps 658 mmHg 86%
    23:00 +2°C° 0 mm 1 mps 657 mmHg 88%

    24 September, Monday

    Time Temperature Precipitation Wind Pressure Humidity
    00:00 +2°C° 0 mm 1 mps 657 mmHg 90%
    01:00 +1°C° 0 mm 1 mps 657 mmHg 92%
    02:00 +1°C° 0 mm 1 mps 656 mmHg 93%
    03:00 +1°C° 0 mm 1 mps 656 mmHg 93%
    04:00 0°C° 0 mm 1 mps 656 mmHg 94%
    05:00 +1°C° 0 mm 1 mps 656 mmHg 91%
    06:00 +2°C° 0 mm 1 mps 656 mmHg 88%
    07:00 +2°C° 0 mm 1 mps 657 mmHg 84%
    08:00 +3°C° 0 mm 2 mps 657 mmHg 75%
    09:00 +5°C° 0 mm 2 mps 657 mmHg 65%
    10:00 +8°C° 0 mm 2 mps 657 mmHg 56%
    11:00 +9°C° 0 mm 2 mps 657 mmHg 52%
    12:00 +9°C° 0 mm 2 mps 657 mmHg 48%
    13:00 +10°C° 0 mm 2 mps 657 mmHg 45%
    14:00 +11°C° 0 mm 1 mps 657 mmHg 46%
    15:00 +11°C° 0 mm 1 mps 656 mmHg 47%
    16:00 +11°C° 0 mm 1 mps 656 mmHg 48%
    17:00 +9°C° 0 mm 1 mps 656 mmHg 55%
    18:00 +7°C° 0 mm 1 mps 655 mmHg 63%
    19:00 +4°C° 0 mm 1 mps 655 mmHg 71%
    20:00 +4°C° 0 mm 1 mps 655 mmHg 72%
    21:00 +3°C° 0 mm 1 mps 655 mmHg 74%
    22:00 +3°C° 0 mm 1 mps 655 mmHg 76%
    23:00 +3°C° 0 mm 1 mps 654 mmHg 77%

    25 September, Tuesday

    Time Temperature Precipitation Wind Pressure Humidity
    00:00 +2°C° 0 mm 1 mps 654 mmHg 78%
    01:00 +2°C° 0 mm 1 mps 654 mmHg 79%
    02:00 +2°C° 0 mm 1 mps 654 mmHg 80%
    03:00 +1°C° 0 mm 1 mps 653 mmHg 81%
    04:00 +1°C° 0 mm 1 mps 653 mmHg 82%
    05:00 +2°C° 0 mm 1 mps 654 mmHg 79%
    06:00 +3°C° 0 mm 1 mps 654 mmHg 76%
    07:00 +3°C° 0 mm 1 mps 654 mmHg 73%
    08:00 +6°C° 0 mm 1 mps 654 mmHg 66%
    09:00 +8°C° 0 mm 1 mps 655 mmHg 59%
    10:00 +11°C° 0 mm 1 mps 655 mmHg 52%
    11:00 +12°C° 0 mm 2 mps 655 mmHg 49%
    12:00 +13°C° 0 mm 2 mps 655 mmHg 46%
    13:00 +14°C° 0 mm 2 mps 654 mmHg 44%
    14:00 +13°C° 0 mm 2 mps 654 mmHg 45%
    15:00 +13°C° 0 mm 2 mps 654 mmHg 47%
    16:00 +13°C° 0 mm 2 mps 654 mmHg 49%
    17:00 +10°C° 0 mm 2 mps 653 mmHg 57%
    18:00 +9°C° 0 mm 1 mps 653 mmHg 65%
    19:00 +7°C° 0 mm 1 mps 652 mmHg 74%
    20:00 +6°C° 0 mm 1 mps 652 mmHg 75%
    21:00 +6°C° 0 mm 1 mps 652 mmHg 76%
    22:00 +6°C° 0 mm 1 mps 652 mmHg 77%
    23:00 +6°C° 0.2 mm 1 mps 652 mmHg 79%

    26 September, Wednesday

    Time Temperature Precipitation Wind Pressure Humidity
    00:00 +6°C° 0.2 mm 1 mps 652 mmHg 81%
    01:00 +6°C° 0.2 mm 1 mps 651 mmHg 83%
    02:00 +5°C° 0.2 mm 1 mps 651 mmHg 85%
    03:00 +5°C° 0.2 mm 1 mps 651 mmHg 87%
    04:00 +5°C° 0.2 mm 1 mps 651 mmHg 89%
    05:00 +5°C° 0.1 mm 1 mps 651 mmHg 88%
    06:00 +5°C° 0.1 mm 1 mps 652 mmHg 87%
    07:00 +6°C° 0.1 mm 1 mps 652 mmHg 86%
    08:00 +7°C° 0.1 mm 1 mps 652 mmHg 81%
    09:00 +8°C° 0.1 mm 1 mps 652 mmHg 76%
    10:00 +10°C° 0.1 mm 1 mps 653 mmHg 72%
    11:00 +10°C° 0.2 mm 1 mps 653 mmHg 71%
    12:00 +10°C° 0.2 mm 1 mps 653 mmHg 71%
    13:00 +9°C° 0.2 mm 2 mps 652 mmHg 71%
    14:00 +8°C° 0.3 mm 2 mps 652 mmHg 74%
    15:00 +8°C° 0.3 mm 2 mps 652 mmHg 76%
    16:00 +7°C° 0.3 mm 2 mps 652 mmHg 78%
    17:00 +6°C° 0.2 mm 2 mps 652 mmHg 83%
    18:00 +5°C° 0.2 mm 2 mps 652 mmHg 88%
    19:00 +4°C° 0.2 mm 1 mps 652 mmHg 93%
    20:00 +4°C° 0.1 mm 1 mps 652 mmHg 93%
    21:00 +4°C° 0.1 mm 1 mps 652 mmHg 93%
    22:00 +4°C° 0.1 mm 1 mps 652 mmHg 94%
    23:00 +4°C° 0.1 mm 1 mps 652 mmHg 94%
    Show more